Main page
METAR-TAF:

METAR-TAF

Airports :

Spadeadam, England

RAF Spadeadam

latitude: 55-03N, longitude: 002-33W, elevation: 325 m

Current weather observation

The report was made 1 hour and 2 minutes ago, at 16:50 UTC
Wind 7 kt from the West
Temperature 9°C
Humidity 71%
Pressure 1013 hPa
Visibility 10 km or more

METAR: EGOM 281650Z AUTO 26007KT 9999 OVC050/// 09/04 Q1013

Time: 18:52 (17:52 UTC)


TAF: missing

Weather observations and forecasts of more than 4000 airports (METAR and TAF reports).

The available stations are represented by yellow and red dots on the map.

Hover mouse over dot to see the name of the station.

Then click to see weather observations and forecasts.

To change the map : click on the green buttons with a black cross to zoom in, on the green button with a dash to zoom out, or on the green arrows for adjacent maps.


METAR-TAF: